Wetbulb
52.56 52.52 52.79 52.89 52.96 53.02 52.86 52.83 52.87 52.58 52.87 52.89 53.06 53.12 53.54 53.64 53.88 53.42 56.05 58.74 53.86 51.94 53.97 55.31 55.06 52.89 52.67 54.15 53.53 56.75 55.82 56.50 56.01 54.02 53.58 53.47 52.89 55.45 53.45 55.39 54.25 53.98 52.43 51.32 52.33 50.17 48.06 60.52 58.21 54.77 61.50 64.42 64.39 64.26
52.25 52.44 52.54 52.75 53.12 53.09 53.13 53.02 52.38 52.63 52.77 52.92 53.04 53.06 53.43 53.47 53.37 53.00 54.39 58.91 57.79 51.99 53.77 56.79 56.47 57.23 56.73 56.06 54.71 56.18 56.14 56.89 58.24 56.13 55.91 55.94 53.79 55.22 54.35 51.08 57.71 52.69 55.78 53.66 54.44 53.92 62.56 62.40 61.46 62.95 64.27 63.69 64.54 65.09
52.50 52.57 52.63 52.61 52.78 53.03 53.03 52.92 52.86 52.52 52.75 52.94 52.98 53.25 53.33 53.06 53.11 52.47 53.08 55.87 54.80 52.11 54.22 56.75 56.11 59.49 59.74 57.41 57.75 52.40 56.74 57.26 59.08 59.26 57.83 57.59 54.74 56.42 52.13 52.86 54.91 56.82 58.68 55.13 55.64 56.97 58.75 61.38 62.55 63.36 64.33 65.04 65.57 64.80
52.53 52.42 52.34 52.57 52.56 52.82 52.78 53.07 52.86 52.69 52.63 52.86 53.31 53.35 53.29 53.17 52.97 52.38 51.27 55.67 54.95 52.92 50.59 55.87 60.71 59.84 62.20 60.50 57.25 56.35 56.48 57.38 57.40 57.94 56.01 55.39 54.04 57.86 54.47 55.53 54.66 56.63 59.42 55.50 56.77 58.47 59.84 60.73 61.68 63.20 64.43 64.93 63.77 63.60
52.46 52.37 52.27 52.25 52.49 52.37 52.37 51.98 52.72 52.92 52.67 52.88 53.08 53.15 53.33 53.15 52.59 52.29 52.93 53.93 55.05 52.22 51.56 54.47 58.32 59.52 60.66 60.81 59.09 57.46 55.02 54.58 53.81 54.20 54.24 53.59 56.56 56.50 56.73 56.35 54.16 56.97 55.86 53.37 53.18 58.69 59.21 59.97 63.23 64.49 63.64 63.20 63.16 62.97
52.63 52.50 52.31 52.31 52.31 52.20 52.20 51.79 52.15 53.19 53.06 53.00 52.97 52.92 52.92 52.68 52.32 52.27 53.63 57.00 56.13 55.14 51.87 52.04 58.41 56.68 60.36 60.52 59.80 58.23 56.01 54.61 54.58 54.48 54.27 55.41 57.25 56.47 52.53 51.10 55.77 56.88 57.80 57.69 57.13 60.27 60.70 61.86 63.76 64.67 63.42 63.03 63.39 63.12
52.63 52.59 52.44 52.29 52.19 52.21 52.36 52.55 52.69 52.89 52.87 52.01 52.42 52.29 52.12 51.93 52.25 53.27 52.56 54.92 54.43 57.35 52.27 52.66 54.42 57.23 60.20 60.29 60.26 59.61 59.34 57.10 56.02 54.94 54.15 54.77 55.70 55.47 52.60 48.64 54.34 55.66 57.43 58.72 59.48 60.19 59.34 60.40 60.55 63.52 63.32 63.70 62.20 64.25
52.35 52.37 52.26 52.10 52.03 52.09 52.40 52.41 52.43 52.47 52.53 52.12 52.07 51.60 52.02 51.65 51.71 53.36 56.22 52.49 55.15 55.16 55.29 51.20 53.07 55.08 59.75 56.73 56.31 60.32 57.44 57.91 57.72 56.97 58.15 56.04 57.20 56.53 51.91 55.98 56.96 57.40 57.92 57.87 57.99 58.84 60.55 61.04 61.70 62.72 63.73 64.10 62.53 62.24
52.25 52.33 52.18 52.06 52.10 52.30 52.39 52.53 52.49 52.45 52.03 51.97 52.02 51.74 53.20 53.29 54.72 54.64 53.85 52.54 56.31 54.79 50.35 53.94 51.50 51.30 59.59 57.58 58.83 58.06 58.44 53.98 58.31 55.14 55.22 56.22 54.54 52.70 56.15 57.65 58.28 58.57 58.15 57.66 58.69 59.20 60.57 60.13 61.50 62.28 62.86 62.95 61.91 61.62
52.26 52.05 51.88 52.07 52.33 52.26 52.31 52.37 52.40 52.09 51.59 51.63 53.35 54.10 51.92 54.86 52.64 53.67 54.08 51.43 51.82 53.34 53.79 51.60 56.15 53.39 57.39 56.94 55.61 55.79 56.53 53.78 52.26 55.38 57.53 54.75 53.84 57.59 57.58 59.06 59.95 60.32 60.25 60.43 57.90 58.61 60.02 60.07 61.23 61.88 62.08 62.63 62.33 61.81
52.22 51.95 51.76 52.23 52.35 52.29 52.19 52.14 52.09 51.19 52.11 52.05 50.91 50.10 55.22 53.49 55.43 53.24 50.42 49.05 50.47 48.01 53.25 53.90 54.64 53.09 57.69 53.70 54.11 57.32 54.30 54.81 49.13 53.38 53.03 52.38 51.80 56.14 59.77 60.28 61.00 60.92 61.25 60.66 61.28 61.31 61.85 61.99 62.24 61.58 61.00 62.00 62.02 62.18
51.88 51.71 51.97 51.76 51.55 52.09 51.95 52.13 51.31 50.47 49.15 48.73 48.25 50.55 52.12 52.14 51.55 47.95 47.60 50.17 50.10 49.47 53.77 53.62 54.52 55.89 58.05 60.37 55.85 57.08 52.64 55.05 47.80 58.41 52.21 49.72 58.29 60.39 60.30 59.82 60.75 61.04 60.79 60.96 61.65 62.05 62.60 62.78 62.56 62.19 62.23 62.39 61.83 62.28
51.62 51.84 51.86 51.48 51.47 51.83 52.14 51.64 51.37 51.13 50.66 51.53 47.26 45.90 48.39 50.42 42.34 43.30 42.71 47.50 48.80 53.78 56.43 57.04 54.73 57.81 59.61 57.79 55.15 53.54 50.10 49.85 56.11 50.71 48.77 54.49 59.67 60.35 60.52 60.74 60.69 61.73 62.11 61.78 61.43 61.51 61.18 60.93 60.85 60.44 60.22 60.98 60.94 60.99
51.55 51.59 51.35 51.31 51.63 51.79 51.83 51.63 51.42 50.31 49.30 47.04 46.29 39.91 45.47 44.79 46.70 48.14 49.26 51.14 53.73 56.74 56.75 57.59 57.04 55.97 57.87 55.23 54.98 49.60 51.82 53.39 46.86 45.09 46.86 57.73 60.13 60.79 61.22 61.63 61.15 60.31 60.61 60.23 59.85 60.08 59.90 59.23 59.49 59.50 59.29 59.73 60.14 60.82
51.43 51.54 51.37 51.61 51.66 51.34 51.50 51.03 50.52 50.19 47.93 45.66 47.58 41.67 46.32 50.66 52.81 53.38 52.84 54.19 56.50 57.75 57.74 56.18 54.77 54.43 52.59 51.67 52.36 51.47 48.67 47.05 47.33 47.65 54.66 59.12 61.02 61.09 60.88 60.82 59.95 59.43 59.70 59.35 59.50 58.86 58.71 58.66 59.22 59.61 60.50 61.00 60.96 60.89
51.23 51.06 52.63 51.13 51.07 51.24 50.67 51.40 52.53 50.74 47.71 45.21 47.41 46.42 49.77 49.26 49.75 52.10 53.31 51.15 54.97 57.56 57.97 56.33 52.64 50.28 49.19 51.24 48.99 48.44 47.17 45.79 51.12 57.14 58.75 60.60 60.70 60.24 60.57 61.27 60.99 59.69 58.63 58.27 58.17 58.48 58.65 58.52 58.57 59.11 60.17 60.65 60.94 60.41
50.45 50.68 51.09 50.84 50.68 49.98 50.40 50.25 51.09 45.85 44.38 44.37 45.62 49.97 48.93 48.85 48.99 50.50 53.19 53.41 55.62 53.85 52.81 53.59 47.13 47.26 53.91 50.00 48.55 50.80 48.96 53.66 55.72 58.02 60.50 61.72 61.11 61.03 61.06 60.81 58.96 58.78 58.57 58.83 59.57 59.49 58.46 59.29 59.54 57.60 57.21 58.39 59.88 60.48
49.59 51.94 51.05 50.72 50.84 50.84 50.87 50.59 48.05 46.16 43.17 46.26 44.67 47.20 49.23 50.62 49.82 50.77 51.46 52.76 52.90 51.82 51.72 50.21 53.28 48.73 47.81 45.87 47.40 50.89 55.32 57.10 58.06 59.14 61.65 62.11 61.60 61.19 61.25 60.90 59.28 59.25 58.95 58.97 59.47 59.58 59.58 58.78 57.51 56.75 57.41 58.30 59.13 59.78
50.42 50.67 50.28 50.35 50.28 48.50 46.06 46.73 48.78 42.54 44.18 47.03 48.26 49.73 49.70 49.53 50.82 51.68 52.25 52.73 53.03 53.43 51.03 50.05 47.93 47.54 48.76 52.05 51.69 53.76 52.76 54.97 57.35 58.25 59.81 61.65 61.75 60.71 60.64 60.56 59.84 59.38 59.61 60.01 59.76 58.86 59.18 60.22 59.42 58.11 58.97 59.72 58.84 60.66
49.90 49.90 50.19 50.24 50.46 47.27 43.64 45.31 50.59 45.99 44.06 47.17 47.28 46.74 47.97 48.37 49.69 50.10 50.41 51.58 51.50 50.26 47.33 46.72 48.29 50.94 51.92 53.56 55.44 54.84 55.76 57.25 57.69 57.94 58.11 61.04 60.65 61.07 60.69 59.29 58.56 60.02 59.16 60.15 59.70 51.73 59.97 60.57 61.56 61.32 60.17 59.39 60.46 59.67
49.64 50.70 50.47 51.78 48.69 47.34 46.72 45.80 44.85 45.93 46.36 44.87 47.70 46.19 45.36 48.55 47.45 47.92 47.95 51.11 47.64 46.73 48.17 51.12 51.80 53.48 55.77 55.88 56.30 56.77 57.38 58.14 56.91 56.00 57.99 58.10 59.41 60.90 60.14 59.16 59.88 59.17 57.77 57.29 56.46 56.54 53.96 59.15 59.05 61.47 60.72 60.82 60.43 58.80
50.26 49.63 52.12 49.75 46.32 44.81 43.23 46.75 45.49 46.33 44.97 45.48 46.19 47.01 45.08 44.30 45.18 46.82 50.47 47.38 46.83 50.07 51.48 52.46 53.26 54.07 54.69 55.62 55.66 56.83 57.70 57.94 58.82 57.34 52.91 54.02 55.84 58.67 59.53 58.78 58.26 57.22 57.06 57.93 57.87 56.74 57.58 58.39 59.43 60.91 59.56 58.90 55.53 58.43
50.31 50.08 47.81 46.55 42.12 40.76 40.38 48.68 43.56 43.58 41.47 43.41 46.05 44.30 45.28 46.60 49.65 53.00 47.50 50.86 52.41 55.77 57.11 57.36 57.40 58.07 57.17 58.05 58.04 57.71 58.29 57.69 55.90 56.54 57.30 58.16 57.26 58.30 58.61 59.86 59.24 57.40 56.78 58.13 59.02 58.44 58.61 54.58 56.63 58.43 59.34 57.94 57.34 57.75
48.62 46.46 41.94 41.40 40.65 38.64 44.94 42.88 44.96 44.80 44.82 43.76 43.98 42.65 44.34 46.90 49.73 46.86 46.15 50.46 52.36 54.79 54.43 54.68 54.12 53.40 56.88 57.80 56.36 57.49 57.24 56.84 56.41 57.30 58.47 57.84 55.45 57.35 59.90 58.51 59.34 59.16 58.78 59.29 59.25 58.67 58.86 58.46 55.50 58.93 58.19 58.69 58.77 57.75
40.89 40.11 41.96 36.90 43.86 40.60 39.90 40.84 42.00 41.26 40.35 43.09 41.92 42.49 44.81 48.37 44.74 45.14 47.02 50.76 50.36 51.06 50.99 49.79 50.51 52.89 52.54 55.64 57.61 57.80 58.33 56.64 55.16 54.77 57.32 59.16 57.44 56.12 58.02 58.54 59.09 59.21 59.45 58.86 58.20 58.53 58.21 58.66 58.50 58.15 58.13 58.39 58.72 57.59
34.76 41.49 38.32 40.10 41.28 39.81 40.86 38.76 40.37 39.96 42.08 41.48 43.08 46.13 47.62 44.90 42.90 43.36 49.50 50.91 50.74 51.19 49.43 49.62 49.28 48.47 49.98 53.26 55.56 55.22 56.20 57.88 58.02 55.92 57.03 58.08 59.33 56.73 54.73 55.77 56.49 57.37 60.21 59.45 58.76 58.12 58.39 58.61 57.91 58.00 57.28 57.15 49.09 57.12
35.74 37.92 43.70 47.46 44.67 44.02 42.49 43.91 44.10 43.00 40.72 40.84 44.23 43.72 43.17 39.19 40.39 46.60 52.73 53.53 52.02 52.36 52.24 50.62 50.03 50.12 49.82 52.47 54.83 55.20 58.66 57.98 58.50 57.82 58.91 59.83 60.55 59.40 56.83 58.42 58.18 58.97 60.26 60.18 59.61 59.17 58.87 58.96 58.76 58.17 57.86 57.91 58.44 58.23
41.08 41.72 38.31 41.75 41.92 44.04 40.51 40.93 40.44 40.33 42.41 45.69 46.58 40.90 40.19 42.64 45.30 50.90 53.64 55.15 56.20 53.64 52.52 52.24 52.24 51.86 50.91 51.79 52.88 55.68 57.86 58.96 58.74 60.16 60.24 59.98 59.88 60.25 60.48 61.03 61.54 49.21 58.62 60.66 60.91 59.93 59.84 60.10 58.99 59.48 58.80 57.79 58.25 60.18
39.79 42.68 42.58 40.09 41.19 41.16 40.74 39.79 42.19 45.63 47.23 46.89 44.66 43.32 45.39 49.96 52.59 52.75 53.06 54.21 54.81 53.37 51.78 49.52 50.32 54.47 54.38 55.73 55.54 58.17 59.52 59.89 58.39 55.28 55.06 54.82 54.80 56.98 60.55 60.82 61.29 61.47 61.42 61.19 49.82 55.44 60.96 60.16 60.30 60.35 60.35 60.31 60.47 60.76
40.72 44.04 40.57 40.33 39.36 39.66 43.74 46.67 45.73 48.28 49.00 48.79 49.08 50.03 50.79 52.41 54.94 57.26 56.73 56.27 55.65 53.61 52.62 52.00 51.97 52.32 51.89 53.70 57.41 56.06 58.28 60.51 59.19 56.30 54.51 55.83 57.18 59.02 60.40 60.49 61.04 61.21 61.24 60.41 60.14 60.77 45.90 55.02 57.71 60.77 59.58 59.93 59.77 59.16
43.41 42.63 40.26 40.73 40.88 43.93 44.96 46.50 47.71 47.94 48.78 48.95 51.39 50.08 50.27 52.68 55.36 57.80 58.01 58.28 58.98 57.18 54.96 53.21 53.26 53.48 54.21 54.80 56.92 57.02 57.81 61.66 62.05 61.81 60.28 59.19 59.73 61.11 60.78 61.31 62.09 61.38 61.41 61.36 60.34 61.03 60.10 58.53 60.66 60.05 59.21 59.51 59.61 57.73
42.81 40.31 39.31 38.18 42.25 46.01 47.50 45.81 48.46 49.77 48.97 49.53 50.68 54.05 54.13 54.09 52.82 56.53 59.27 59.11 58.00 55.28 50.81 56.23 56.91 55.70 56.69 57.55 60.44 60.93 47.92 62.56 62.43 62.92 62.44 62.04 62.56 62.68 61.40 61.44 61.17 60.92 61.16 60.58 61.08 60.17 60.92 60.22 59.31 58.69 59.85 59.23 59.83 59.43
42.63 41.60 40.82 40.00 42.26 46.61 49.91 47.61 49.59 47.89 49.53 49.01 51.89 53.95 53.92 53.17 51.10 57.49 60.75 61.46 60.20 59.72 59.35 59.82 60.17 60.96 61.48 61.34 61.35 62.21 54.68 63.73 56.18 46.26 46.83 43.95 40.88 46.35 56.07 61.78 61.85 61.43 60.74 60.13 59.83 59.90 59.80 59.62 60.05 60.00 59.99 59.82 60.14 60.13
MSLP
1024.07 1023.46 1023.13 1022.69 1022.25 1021.74 1021.19 1020.71 1020.22 1019.78 1019.28 1018.74 1018.40 1017.97 1017.57 1017.18 1016.77 1016.21 1013.44 1012.93 1012.58 1009.98 1007.17 1006.21 1005.55 1004.81 1003.69 1002.93 1001.38 1000.65 1000.35 999.46 998.41 997.71 996.51 995.31 994.33 993.64 993.82 993.93 994.13 994.72 995.45 995.69 996.36 995.96 995.99 996.69 997.02 997.69 998.61 998.75 998.74 998.92
1023.55 1023.21 1022.72 1022.38 1022.02 1021.47 1020.98 1020.51 1020.04 1019.57 1019.07 1018.47 1018.09 1017.78 1017.38 1017.06 1016.77 1016.49 1013.61 1012.62 1012.82 1011.72 1007.99 1006.81 1006.31 1005.73 1004.79 1004.21 1003.68 1002.11 1000.95 1000.47 999.44 998.68 997.19 995.82 995.09 994.62 995.38 994.57 995.02 995.77 995.62 995.91 996.47 996.64 997.86 997.95 998.20 998.47 999.40 999.44 999.75 1000.01
1023.36 1022.94 1022.56 1022.12 1021.68 1021.18 1020.70 1020.22 1019.74 1019.32 1018.83 1018.23 1017.74 1017.40 1017.11 1016.80 1016.58 1016.53 1014.95 1013.63 1012.87 1010.52 1007.18 1004.90 1003.72 1003.80 1004.55 1004.72 1004.52 1003.74 1001.79 1001.76 1000.98 1001.15 999.36 997.27 996.53 995.90 995.60 995.66 995.77 996.12 996.61 997.14 997.64 997.49 997.50 998.00 998.93 999.25 999.54 999.58 1000.32 1001.02
1023.08 1022.58 1022.25 1021.81 1021.40 1020.86 1020.36 1019.87 1019.37 1018.91 1018.49 1017.92 1017.32 1016.89 1016.64 1016.37 1016.19 1016.11 1015.18 1013.66 1012.97 1010.86 1007.45 1003.05 1003.13 1003.19 1003.57 1003.67 1004.05 1003.93 1003.28 1002.82 1002.19 1001.27 999.97 998.76 997.80 997.69 997.34 996.72 996.60 996.33 997.01 997.58 997.94 998.14 998.18 998.94 999.32 999.61 999.93 1000.95 1001.52 1002.24
1022.70 1022.17 1021.80 1021.46 1021.04 1020.47 1019.94 1019.47 1018.92 1018.42 1017.97 1017.52 1016.88 1016.29 1016.07 1015.79 1015.56 1015.28 1014.38 1013.77 1013.51 1012.22 1008.13 1004.61 1002.97 1002.26 1002.61 1003.03 1003.57 1003.84 1003.75 1003.32 1002.66 1001.38 1000.33 999.40 998.86 998.55 998.75 998.21 997.40 997.05 997.05 997.22 997.33 997.71 997.81 998.32 999.20 999.92 1000.44 1001.03 1001.62 1002.40
1022.19 1021.75 1021.32 1021.00 1020.64 1020.05 1019.50 1019.02 1018.39 1017.87 1017.31 1016.91 1016.35 1015.72 1015.28 1015.14 1015.06 1014.52 1012.12 1011.99 1012.87 1012.48 1009.71 1004.92 1002.43 1002.35 1002.55 1002.82 1003.09 1003.31 1003.41 1003.32 1002.74 1001.43 1000.45 999.83 999.57 1000.21 999.34 998.31 997.92 997.57 997.46 997.08 997.50 997.90 998.46 998.71 999.12 999.72 1000.48 1001.06 1001.68 1002.41
1021.88 1021.42 1020.93 1020.52 1020.09 1019.63 1019.10 1018.55 1017.94 1017.40 1016.77 1016.20 1015.66 1014.93 1014.31 1014.19 1014.30 1012.93 1012.84 1012.39 1012.23 1011.88 1009.73 1005.44 1001.73 1001.92 1002.19 1002.49 1002.41 1002.45 1002.68 1002.45 1002.23 1001.61 1000.86 1000.15 999.82 1000.53 999.87 998.76 998.34 997.97 997.75 997.84 998.39 999.04 999.35 999.20 999.33 999.65 1000.48 1000.99 1002.49 1002.87
1021.36 1020.99 1020.49 1020.07 1019.64 1019.16 1018.62 1018.04 1017.40 1016.81 1016.16 1015.49 1014.96 1014.28 1013.59 1013.43 1013.78 1012.58 1012.20 1012.79 1012.32 1010.87 1008.92 1005.77 1002.20 1001.41 1001.96 1001.33 1001.35 1001.76 1001.78 1001.91 1001.70 1000.83 1000.26 999.92 999.66 1000.15 999.65 999.21 998.90 998.77 998.63 998.56 998.84 999.20 999.45 999.21 999.36 999.57 1000.57 1001.39 1002.39 1003.27
1020.81 1020.50 1020.12 1019.68 1019.17 1018.68 1018.19 1017.55 1016.88 1016.19 1015.44 1014.63 1014.28 1013.93 1013.62 1013.11 1011.50 1011.91 1012.46 1012.77 1012.18 1011.17 1008.40 1004.65 1002.01 1000.80 1000.96 1000.40 1000.33 1001.38 1001.01 1000.76 1000.49 1000.42 1000.06 999.92 999.28 998.81 999.04 999.34 999.21 999.12 999.15 999.14 999.24 999.27 999.26 999.13 999.03 999.77 1000.75 1001.58 1002.29 1002.90
1020.42 1020.05 1019.73 1019.29 1018.72 1018.27 1017.81 1017.17 1016.52 1015.57 1014.48 1013.48 1013.40 1012.59 1011.55 1011.61 1012.66 1012.69 1012.43 1011.59 1010.95 1009.48 1008.40 1005.26 1002.53 1000.97 1000.59 999.89 1000.32 1000.34 1000.47 999.92 999.12 999.05 999.35 998.86 998.71 998.73 998.54 998.57 998.50 998.84 999.06 999.47 999.33 999.33 999.35 999.46 999.57 1000.09 1000.94 1001.42 1002.01 1002.59
1019.90 1019.55 1019.23 1018.84 1018.39 1017.94 1017.42 1016.98 1016.47 1015.46 1013.77 1013.18 1012.25 1012.05 1011.70 1012.02 1011.59 1010.69 1009.73 1009.10 1008.19 1007.47 1005.90 1004.10 1002.78 1001.28 1001.06 1000.28 999.93 999.70 1000.13 999.41 999.07 998.61 998.89 998.47 998.30 998.71 998.76 999.13 999.63 999.72 999.74 999.69 999.70 999.70 999.73 999.83 1000.58 1000.75 1001.61 1001.86 1002.52 1003.22
1019.47 1019.11 1018.76 1018.39 1018.07 1017.60 1017.16 1016.87 1016.50 1015.81 1015.49 1015.34 1015.21 1014.35 1012.92 1011.13 1009.51 1008.61 1007.42 1006.51 1005.82 1004.44 1003.58 1002.71 1002.31 1002.07 1001.15 1001.41 1000.59 1000.27 1000.06 999.82 999.59 999.66 999.39 998.95 999.85 1000.19 1000.09 1000.16 1000.23 1000.12 999.98 999.84 999.92 1000.42 1000.97 1001.15 1001.73 1002.23 1002.59 1002.85 1003.18 1003.60
1019.04 1018.74 1018.34 1018.01 1017.73 1017.28 1016.95 1016.77 1016.43 1015.95 1015.10 1014.50 1014.55 1013.49 1011.88 1009.55 1008.53 1007.15 1005.63 1004.55 1003.96 1003.23 1003.29 1003.01 1002.72 1002.09 1001.96 1001.74 1000.90 1000.70 1000.30 999.77 999.82 999.73 999.46 999.92 1000.69 1001.11 1001.05 1000.99 1001.09 1001.05 1001.14 1001.46 1001.80 1002.40 1002.74 1002.95 1003.51 1003.56 1003.53 1003.70 1003.89 1004.00
1018.52 1018.23 1017.87 1017.56 1017.30 1016.93 1016.75 1016.47 1016.08 1015.52 1015.12 1013.76 1012.52 1011.64 1009.91 1007.75 1006.20 1004.71 1003.98 1003.93 1003.94 1003.71 1003.87 1003.72 1003.24 1002.74 1002.81 1002.17 1001.26 1001.00 1000.45 1000.22 1000.08 999.97 999.98 1001.14 1001.56 1001.92 1001.96 1001.99 1002.08 1002.20 1002.43 1002.70 1003.04 1003.30 1003.53 1003.71 1003.90 1003.98 1003.99 1004.00 1003.99 1004.08
1017.99 1017.66 1017.20 1016.74 1016.68 1016.66 1016.40 1016.04 1015.64 1015.32 1014.70 1013.22 1011.33 1009.70 1007.51 1006.02 1005.67 1005.07 1004.76 1004.25 1004.59 1004.61 1004.34 1003.55 1003.06 1002.66 1002.37 1002.02 1001.50 1001.16 1001.11 1000.41 1000.03 1000.15 1000.94 1001.74 1002.32 1002.50 1002.62 1002.72 1002.86 1002.97 1003.12 1003.30 1003.57 1003.78 1004.07 1004.26 1004.29 1004.18 1004.04 1004.05 1004.23 1004.38
1017.54 1017.02 1016.12 1016.38 1016.45 1016.22 1015.89 1015.14 1014.35 1014.69 1014.02 1012.91 1010.67 1008.69 1007.10 1005.90 1004.99 1005.12 1004.60 1004.87 1005.04 1005.09 1004.76 1003.97 1003.32 1002.80 1002.32 1001.53 1001.44 1000.74 1000.20 1000.20 1000.91 1000.86 1001.12 1002.36 1002.74 1003.11 1003.23 1003.70 1003.95 1003.97 1004.17 1004.33 1004.58 1004.81 1004.92 1004.97 1004.96 1004.93 1004.82 1004.59 1004.35 1004.40
1017.38 1016.43 1016.32 1016.27 1016.10 1015.66 1015.09 1014.79 1013.37 1013.57 1012.85 1011.41 1009.46 1008.44 1007.85 1007.06 1006.21 1005.94 1005.25 1005.22 1005.43 1004.87 1004.74 1004.46 1003.67 1002.64 1002.12 1001.66 1000.96 1000.73 1000.83 1001.58 1001.64 1001.97 1002.30 1002.82 1003.30 1003.68 1003.90 1004.18 1004.38 1004.48 1004.57 1004.70 1004.83 1005.05 1005.22 1005.24 1005.09 1005.23 1005.05 1005.03 1004.95 1004.73
1016.67 1015.90 1016.09 1016.13 1015.89 1014.94 1014.14 1013.85 1012.79 1011.96 1011.20 1010.08 1009.14 1008.12 1007.67 1007.22 1006.70 1006.12 1005.96 1005.86 1005.57 1005.19 1005.05 1004.85 1004.63 1003.26 1002.16 1001.29 1001.10 1002.37 1002.16 1001.77 1002.26 1002.67 1003.17 1003.62 1003.96 1004.12 1004.44 1004.47 1004.44 1004.62 1004.72 1004.89 1005.05 1005.04 1004.91 1004.95 1005.08 1005.03 1005.36 1005.24 1005.07 1004.95
1016.18 1016.08 1016.03 1016.03 1016.02 1015.56 1014.07 1013.11 1012.44 1011.37 1010.20 1009.39 1008.68 1008.05 1007.59 1007.20 1006.97 1006.78 1006.49 1006.22 1006.12 1005.92 1005.83 1005.00 1004.24 1002.93 1002.22 1001.76 1002.12 1002.20 1002.63 1002.11 1002.53 1003.04 1003.10 1003.66 1004.09 1004.22 1004.32 1004.46 1004.43 1004.54 1004.64 1004.79 1004.83 1004.46 1004.64 1004.94 1004.96 1005.16 1005.09 1005.19 1004.94 1004.94
1016.04 1015.80 1015.67 1015.65 1015.73 1014.96 1013.89 1012.58 1011.90 1011.02 1009.75 1009.00 1008.88 1008.24 1007.55 1007.06 1006.63 1006.37 1005.99 1005.62 1005.42 1005.37 1005.62 1004.71 1003.60 1002.71 1001.99 1002.32 1002.71 1002.72 1002.60 1002.54 1002.41 1002.83 1003.57 1004.00 1003.89 1004.28 1004.12 1003.81 1003.51 1004.09 1004.19 1004.42 1004.39 1004.66 1004.74 1004.72 1004.70 1004.80 1004.87 1005.19 1005.32 1005.10
1015.44 1015.08 1015.21 1015.12 1015.16 1014.90 1013.82 1012.33 1011.29 1010.35 1009.57 1008.77 1007.72 1007.61 1007.04 1006.20 1005.94 1005.63 1005.43 1005.28 1005.30 1005.03 1004.32 1003.77 1003.33 1002.92 1002.98 1002.87 1002.84 1002.90 1002.99 1002.88 1003.17 1003.67 1003.63 1003.64 1003.85 1004.14 1003.91 1003.60 1003.74 1003.27 1003.14 1003.07 1004.03 1003.84 1004.26 1003.90 1004.57 1004.61 1004.71 1005.02 1005.24 1005.19
1015.11 1015.03 1014.49 1014.94 1014.59 1014.40 1013.82 1012.51 1011.32 1010.64 1010.10 1008.34 1007.58 1007.03 1006.50 1005.98 1005.69 1005.53 1005.34 1004.89 1004.64 1004.22 1003.88 1003.46 1003.08 1002.73 1002.55 1002.62 1002.84 1003.17 1003.17 1003.26 1003.20 1003.59 1003.90 1004.09 1004.23 1003.94 1004.11 1003.57 1002.88 1002.77 1003.11 1002.76 1002.85 1003.43 1003.62 1004.13 1004.09 1004.35 1004.29 1004.58 1004.95 1004.92
1015.17 1015.02 1014.69 1014.38 1014.20 1013.72 1012.75 1011.61 1011.08 1010.44 1009.59 1008.31 1007.59 1006.80 1006.04 1005.58 1005.27 1005.32 1004.81 1003.90 1003.74 1003.89 1004.15 1004.12 1004.00 1003.86 1003.61 1003.09 1002.97 1002.82 1002.80 1002.96 1002.83 1003.25 1003.22 1003.15 1003.80 1003.79 1003.74 1003.29 1002.96 1002.37 1002.75 1002.55 1002.37 1002.48 1002.97 1003.80 1004.42 1004.29 1004.15 1004.54 1004.68 1004.35
1015.22 1014.58 1014.16 1013.68 1013.54 1012.63 1011.52 1010.94 1010.63 1009.75 1009.03 1008.09 1006.98 1005.98 1005.54 1005.50 1005.53 1005.29 1004.19 1004.06 1004.79 1004.78 1004.68 1004.71 1004.56 1004.18 1003.80 1003.56 1003.01 1002.60 1002.22 1002.25 1002.33 1002.56 1002.61 1002.69 1003.43 1003.22 1002.95 1002.94 1002.74 1001.77 1001.91 1002.09 1002.22 1002.43 1002.51 1002.71 1003.64 1003.78 1004.32 1003.91 1004.20 1004.14
1014.86 1014.16 1013.65 1012.94 1012.06 1011.78 1010.71 1009.81 1009.37 1009.34 1008.42 1007.55 1006.91 1005.98 1005.66 1005.94 1005.28 1004.40 1003.68 1004.62 1005.29 1005.62 1005.74 1005.85 1005.44 1004.85 1004.27 1003.42 1002.99 1002.41 1001.77 1001.25 1001.65 1001.96 1002.40 1002.15 1002.89 1003.42 1002.88 1002.56 1002.02 1001.48 1001.36 1001.91 1002.23 1002.08 1002.16 1002.13 1002.39 1002.67 1003.48 1003.64 1003.80 1003.65
1013.87 1012.51 1012.37 1011.17 1010.76 1010.62 1010.25 1009.58 1008.99 1008.88 1008.26 1007.18 1006.19 1005.78 1005.75 1005.83 1005.18 1004.08 1004.12 1004.67 1005.30 1005.70 1005.89 1005.81 1005.73 1005.46 1004.82 1004.04 1002.92 1002.64 1002.18 1001.56 1000.85 1000.88 1001.21 1001.78 1001.71 1002.70 1002.88 1002.38 1001.41 1001.10 1000.89 1001.18 1001.56 1001.55 1001.79 1001.98 1001.85 1002.19 1002.37 1002.61 1003.07 1003.16
1012.64 1011.33 1010.87 1010.40 1010.46 1010.68 1010.08 1009.29 1008.67 1007.91 1007.25 1006.25 1005.63 1005.68 1005.78 1005.35 1004.68 1004.48 1004.31 1004.85 1005.18 1005.40 1005.54 1005.57 1005.50 1005.30 1004.89 1004.17 1003.33 1002.66 1002.23 1001.95 1001.38 1000.46 1000.38 1001.11 1001.70 1002.64 1003.07 1001.81 1001.26 1000.73 1000.32 1000.54 1000.84 1001.07 1001.20 1001.50 1001.90 1001.78 1001.71 1002.00 1002.03 1002.25
1011.78 1011.15 1010.70 1010.56 1010.31 1009.91 1009.47 1008.80 1007.98 1006.94 1006.22 1005.57 1005.32 1005.26 1005.04 1004.13 1003.54 1003.74 1003.63 1003.87 1004.39 1004.27 1004.33 1004.24 1004.45 1004.61 1004.46 1003.91 1003.33 1002.59 1001.72 1001.06 1000.47 1000.44 1001.02 1001.65 1002.01 1002.44 1002.89 1001.82 1001.01 1001.05 1000.74 1000.86 1000.78 1000.82 1000.96 1001.06 1001.72 1001.71 1001.32 1001.54 1001.79 1001.64
1011.66 1011.04 1010.73 1010.08 1009.74 1009.44 1008.74 1008.15 1007.11 1005.86 1005.62 1005.37 1005.00 1004.55 1003.84 1002.93 1002.39 1002.20 1002.08 1001.93 1002.15 1002.90 1003.48 1003.60 1003.58 1003.25 1002.59 1002.34 1001.99 1001.60 1000.78 1000.56 1000.72 1000.77 1000.94 1001.13 1001.60 1001.78 1001.40 1000.98 1000.43 999.90 999.92 1000.27 1000.72 1000.86 1000.89 1001.41 1001.72 1001.68 1001.19 1000.89 1000.68 1000.78
1010.94 1010.74 1010.33 1009.75 1009.12 1008.18 1007.27 1006.65 1006.29 1005.87 1005.90 1005.77 1005.37 1004.32 1003.56 1002.69 1002.05 1001.56 1001.13 1000.91 1000.84 1002.12 1002.15 1002.39 1002.54 1002.43 1002.24 1001.75 1001.21 1000.95 1000.82 999.94 1000.29 1000.70 1000.84 1000.28 999.92 1000.05 999.94 999.82 999.68 999.37 999.23 999.63 1000.01 1000.41 1001.18 1001.57 1001.49 1001.39 1001.08 1000.49 1000.08 1000.03
1010.66 1010.56 1010.35 1009.72 1008.53 1007.45 1007.01 1006.89 1006.70 1006.37 1005.75 1005.08 1004.44 1003.79 1002.95 1002.31 1001.60 1000.85 1000.78 1000.78 1000.33 1000.83 1001.21 1001.51 1001.68 1001.75 1002.11 1001.38 1001.07 1000.22 999.52 998.76 999.13 999.32 999.71 1000.31 999.61 999.23 998.89 998.88 998.37 998.40 998.50 998.91 999.66 999.52 999.75 1000.58 1000.08 999.87 999.89 999.81 999.73 999.90
1009.93 1010.09 1010.10 1009.50 1008.13 1006.99 1006.69 1005.98 1005.33 1004.53 1004.07 1003.31 1002.59 1001.96 1001.58 1001.47 1001.19 1001.39 1000.72 1000.04 1000.11 1000.46 1000.94 1000.71 1000.55 1001.26 1001.18 1000.14 999.25 999.21 999.33 998.69 998.65 998.95 999.27 999.15 998.29 997.98 998.17 998.16 997.49 997.66 997.93 998.82 998.99 998.66 998.66 998.91 998.99 999.92 998.87 998.80 998.86 998.88
1009.21 1009.56 1009.61 1009.24 1007.98 1006.22 1004.90 1005.06 1004.23 1003.85 1003.41 1003.27 1002.75 1002.19 1001.91 1001.67 1001.52 1001.38 1000.60 1000.47 1000.12 999.81 1000.07 1000.04 999.91 999.58 999.38 999.25 998.97 998.91 998.93 998.74 999.88 1000.13 1000.30 1000.42 1000.55 1000.38 999.84 998.31 997.69 997.54 998.05 998.14 998.11 998.08 998.22 998.16 998.40 998.29 998.64 998.43 998.33 998.54
Wind_Speed
15 15 15 16 17 17 17 18 17 18 18 18 18 16 16 14 13 9 9 3 7 8 17 18 16 12 9 7 9 6 6 11 7 10 11 9 10 7 8 10 10 13 13 12 15 16 20 11 1 4 9 8 8 3
14 15 15 15 17 17 17 17 18 17 18 18 17 16 15 13 12 9 7 2 4 8 11 18 17 20 15 14 10 7 8 6 7 6 7 7 6 4 2 9 10 10 10 8 9 7 7 4 7 3 5 7 3 6
14 14 15 15 16 16 17 17 17 19 18 18 18 17 15 13 11 6 8 8 8 8 14 14 10 11 14 18 14 7 6 7 1 4 7 6 5 7 7 10 14 5 6 6 11 12 10 9 5 4 5 6 7 10
14 15 15 15 16 16 17 16 17 18 19 19 18 18 17 13 11 9 6 5 6 6 7 5 7 7 7 7 14 17 12 7 7 6 7 6 7 3 9 14 10 5 4 3 8 13 8 7 7 5 5 10 9 7
14 15 15 16 16 17 17 19 17 18 19 20 20 19 18 15 12 10 8 8 8 7 8 10 15 3 8 8 10 12 14 11 7 6 6 7 7 7 6 11 11 10 12 10 10 11 6 6 9 9 10 9 11 9
14 15 15 16 17 17 18 20 20 19 19 20 20 20 19 15 8 6 5 7 8 6 6 6 6 4 4 6 8 8 9 8 8 5 5 6 5 2 7 11 15 13 15 11 8 8 6 10 8 12 11 10 8 6
15 16 16 17 17 18 18 19 20 20 20 22 21 21 19 12 7 5 7 5 7 6 5 6 4 7 4 7 6 6 8 6 6 8 8 8 5 5 9 12 13 13 11 7 4 9 10 14 7 11 11 9 6 9
15 16 16 17 17 18 18 20 20 20 21 22 21 20 11 2 8 6 4 5 6 5 6 6 4 5 8 7 6 5 6 5 6 6 4 6 4 5 6 9 7 9 10 11 11 8 13 16 14 12 9 10 10 10
15 15 15 16 16 18 19 19 21 22 22 23 19 4 5 6 1 4 6 5 6 5 6 5 8 4 8 7 4 5 6 7 5 6 9 7 8 7 6 8 8 6 5 7 8 13 11 12 12 12 12 12 11 10
15 14 14 15 16 17 17 19 22 21 22 22 8 7 4 5 8 5 6 4 5 5 6 7 7 5 3 6 8 6 7 8 7 9 9 7 8 13 12 14 3 4 2 7 8 8 6 8 8 11 12 11 9 7
14 14 14 15 16 16 17 18 16 22 9 6 5 5 5 7 5 5 4 6 5 5 6 7 10 7 5 6 1 3 2 5 4 6 6 6 7 2 3 6 5 5 8 8 8 7 10 7 2 3 3 2 3 3
14 14 14 14 16 16 16 12 13 7 3 6 6 6 5 5 5 5 4 4 6 4 4 7 6 8 3 2 5 4 5 2 4 2 4 8 7 5 5 4 3 6 5 4 2 5 9 9 7 5 3 2 4 4
14 14 14 13 15 15 10 12 12 12 11 2 2 3 4 4 2 7 6 5 4 2 3 3 5 3 2 5 5 2 5 6 5 5 7 4 7 5 5 5 6 6 9 9 9 7 4 5 3 4 4 5 5 7
14 14 14 14 14 12 10 13 13 9 3 4 4 3 6 6 6 4 5 4 3 3 1 3 2 1 3 4 3 4 3 2 4 6 3 7 6 6 5 6 6 7 7 6 5 4 2 1 1 2 4 4 6 6
13 14 16 17 6 8 11 13 15 4 3 5 4 5 7 6 1 5 4 3 5 5 4 3 4 4 6 4 4 3 4 6 4 0 5 6 6 7 6 5 4 4 4 4 5 5 4 5 5 6 6 6 6 7
11 17 4 2 6 10 13 14 7 3 3 4 6 7 6 6 4 3 2 2 4 2 3 4 3 3 5 3 4 7 4 2 4 3 7 7 7 6 5 6 5 5 4 4 4 4 4 5 6 7 7 8 8 8
9 4 3 3 9 16 15 5 3 5 4 5 4 4 6 7 7 3 4 3 3 6 2 2 4 4 2 3 4 4 3 4 4 5 4 5 6 5 6 5 5 5 4 3 2 2 4 5 5 6 7 4 7 6
5 6 3 6 10 9 3 4 4 4 7 7 6 5 5 6 6 7 3 6 5 2 3 2 4 5 4 4 3 4 3 5 4 4 2 4 5 6 5 5 5 4 4 4 3 3 4 4 5 3 5 5 5 5
8 10 13 12 7 5 3 3 3 4 4 6 6 6 5 6 6 6 8 5 5 5 3 3 6 5 6 6 8 4 1 6 4 3 2 5 5 5 4 7 5 3 1 2 4 5 3 2 3 2 2 2 1 3
14 16 14 8 5 3 4 4 3 5 4 3 4 6 6 7 6 7 7 9 8 7 5 6 9 8 9 2 3 5 5 6 3 1 2 3 5 4 4 5 5 6 5 4 4 1 3 2 4 3 3 4 3 4
5 3 4 4 3 3 4 4 4 4 5 5 5 5 7 8 7 7 7 7 6 7 10 11 11 10 9 8 8 4 6 4 3 6 2 2 4 4 3 5 6 4 4 5 4 5 3 2 5 2 7 6 3 1
0 4 2 2 2 3 4 5 5 5 5 6 8 5 4 4 5 4 3 6 8 10 10 10 10 8 8 8 8 9 10 9 6 3 4 5 4 5 3 5 5 5 1 6 8 2 5 5 4 3 6 6 3 4
6 2 1 2 3 3 5 3 5 4 5 3 3 4 4 3 2 3 5 6 4 1 2 3 7 9 10 12 11 11 10 11 8 6 5 4 3 5 8 8 8 6 5 4 3 5 6 9 6 4 4 1 3 1
2 4 3 3 5 4 4 4 3 4 4 4 4 4 1 0 1 4 6 2 2 0 3 7 5 5 7 9 10 9 10 9 7 5 7 5 5 7 4 5 9 8 6 2 1 4 8 5 11 9 4 6 3 2
4 3 4 5 5 5 5 5 5 4 4 3 4 4 2 2 3 4 2 4 2 1 2 5 7 7 8 7 7 6 12 9 9 8 9 8 7 5 7 8 8 9 7 10 9 5 5 6 7 8 12 9 10 6
4 6 5 3 3 3 1 4 4 1 5 4 5 1 2 1 5 4 1 4 3 2 2 4 5 5 7 9 6 4 6 9 7 9 8 8 7 7 7 8 6 8 7 7 7 6 5 5 7 8 6 9 6 8
4 4 4 4 1 2 4 5 6 6 4 4 1 1 0 3 4 3 3 2 1 4 4 4 5 5 6 8 8 8 2 7 12 5 7 8 8 5 5 10 8 7 8 5 7 9 6 7 7 8 7 6 7 10
3 4 4 1 3 3 6 5 5 5 4 3 2 3 3 4 1 4 5 6 6 6 7 6 6 6 7 8 8 9 7 7 4 7 5 4 3 8 14 14 13 3 4 6 5 5 8 8 3 10 10 8 9 11
4 4 4 9 7 4 5 5 6 4 4 3 4 4 5 6 10 10 9 7 5 6 3 4 5 7 7 8 8 8 7 4 4 7 12 9 9 9 12 11 12 9 8 8 7 8 10 6 7 5 8 6 7 10
4 4 4 5 5 6 7 5 6 8 7 7 7 9 10 9 9 8 7 6 2 5 6 5 3 3 3 4 4 6 10 8 9 8 7 8 6 7 11 12 14 12 10 11 9 11 5 7 9 9 11 10 9 7
2 2 4 5 5 5 5 6 7 8 10 11 10 10 10 8 8 4 4 5 8 6 1 4 4 7 1 6 6 7 6 4 3 5 8 6 7 11 11 14 12 11 9 6 6 11 7 4 12 13 13 13 13 10
4 4 2 4 5 4 8 4 6 7 7 6 6 4 4 3 2 4 4 4 4 5 2 2 3 7 11 10 8 7 3 2 5 2 2 5 4 8 5 7 9 10 9 10 17 10 9 10 8 11 15 12 13 12
2 3 4 4 5 5 2 5 4 3 1 1 1 2 4 5 4 4 5 4 5 5 2 2 4 5 5 3 4 2 3 4 7 6 5 5 6 7 8 8 9 7 10 12 11 8 10 10 12 10 9 10 8 7
Wind_Direction
324 325 326 328 327 329 329 328 329 330 330 330 331 333 331 335 340 323 311 6 301 294 295 288 282 271 272 246 269 47 257 215 257 234 240 242 252 222 229 260 217 207 220 226 251 265 261 42 141 277 26 336 343 326
318 318 321 324 325 327 327 328 330 328 326 328 327 325 324 326 327 329 282 58 306 265 289 318 289 278 270 276 297 291 327 310 4 282 243 259 267 234 245 252 196 243 287 328 323 0 124 2 354 16 310 285 267 120
315 315 316 318 319 321 325 326 326 327 325 324 323 320 317 315 312 297 299 320 281 256 267 233 234 207 225 236 250 268 247 2 245 332 322 320 323 309 268 224 271 227 245 259 285 288 325 10 355 296 241 200 133 107
311 313 312 312 312 317 321 319 321 321 320 320 319 316 312 307 298 284 270 283 280 274 275 123 137 189 181 196 218 233 272 301 289 284 282 274 264 254 276 288 314 334 70 251 272 262 278 258 255 206 148 132 155 171
307 308 307 308 308 312 316 319 317 316 317 316 314 313 308 301 289 275 258 245 260 289 327 318 306 273 193 183 203 217 231 246 268 257 237 250 269 275 268 284 283 281 274 255 269 278 316 285 166 174 177 185 167 153
303 304 306 307 306 308 311 313 319 314 314 312 310 309 302 298 284 263 230 168 202 225 278 281 25 181 150 167 184 187 208 225 250 267 260 264 287 332 265 258 257 259 267 279 263 317 336 308 190 179 191 192 154 164
303 305 308 306 307 310 310 308 311 311 309 312 308 309 305 281 221 260 9 21 150 221 254 271 216 140 175 170 181 177 191 206 228 223 240 264 226 185 256 261 280 291 299 293 317 311 284 262 248 188 204 161 122 117
301 303 306 306 309 310 308 310 310 309 307 307 309 315 314 211 237 243 159 210 234 252 262 272 261 166 185 194 180 178 180 211 195 260 227 245 192 214 264 270 286 299 302 294 276 243 258 265 223 182 184 143 171 162
295 302 306 308 309 310 313 313 312 308 304 301 307 287 227 232 312 57 126 156 231 289 296 251 276 54 168 228 174 172 208 207 213 220 241 242 238 225 207 235 254 262 270 279 265 246 253 245 195 181 186 168 204 168
297 304 308 308 309 313 317 321 320 315 300 293 263 205 194 54 118 159 183 196 201 200 229 260 287 256 239 168 186 205 184 243 205 210 222 238 250 263 249 234 322 343 260 283 263 256 235 240 193 183 193 204 199 193
296 302 306 308 312 316 319 320 322 322 304 348 314 16 348 139 232 214 212 220 177 214 226 234 252 261 160 263 340 241 21 247 259 226 217 239 231 4 55 49 20 333 281 256 255 255 238 213 180 215 172 227 156 214
295 297 300 309 313 315 320 321 327 333 335 309 302 295 296 246 227 238 231 211 213 240 212 215 182 225 133 263 257 173 235 237 228 209 261 249 81 53 72 63 35 332 313 237 136 82 46 62 54 37 18 254 260 222
293 293 299 304 309 313 315 318 322 313 298 194 207 248 247 216 251 221 206 214 206 227 173 197 185 201 8 244 232 189 231 235 162 223 232 77 99 90 78 77 67 65 72 71 75 83 93 115 142 209 226 235 250 252
288 291 296 299 302 301 307 312 321 329 294 260 224 238 242 197 236 232 285 38 333 24 281 168 229 168 199 251 234 224 293 292 228 232 201 128 111 101 99 102 120 119 120 125 133 121 98 159 335 290 270 281 286 263
290 291 289 290 279 299 305 305 304 281 264 271 231 242 222 252 246 290 307 294 7 328 299 231 205 225 196 207 227 210 218 230 233 202 94 98 114 121 114 108 106 101 75 62 23 21 8 344 317 304 298 281 264 254
301 290 215 129 303 308 301 296 259 195 242 250 254 263 306 269 274 228 253 104 10 339 295 251 225 253 234 216 233 224 231 197 59 69 106 137 131 132 121 101 109 75 72 60 42 32 7 354 332 323 308 294 286 286
291 253 156 341 325 303 285 272 201 208 251 249 250 278 287 275 281 277 276 261 320 290 287 286 244 221 227 238 227 224 5 74 57 51 60 128 139 124 115 120 92 98 92 70 44 3 333 302 317 317 299 312 290 263
249 290 62 2 334 306 231 225 257 239 240 234 244 247 253 276 296 300 324 353 305 273 290 285 304 240 228 255 68 17 59 94 53 70 125 158 143 139 144 145 156 129 95 65 12 297 260 340 324 336 307 270 271 260
290 308 312 312 306 306 284 254 241 269 267 310 282 266 268 276 277 270 274 254 252 283 285 262 246 244 245 281 13 52 12 305 132 203 204 187 173 198 166 181 166 160 124 14 334 360 41 44 32 333 92 67 293 72
281 275 274 273 251 248 238 240 267 274 266 232 232 251 260 272 277 269 260 248 236 214 211 231 249 272 289 30 26 330 343 351 326 354 218 192 165 161 203 207 188 130 212 190 197 286 276 99 110 96 105 126 132 143
247 151 211 228 194 268 300 283 246 264 291 264 281 264 261 241 243 243 235 232 239 233 241 244 259 272 280 285 299 318 307 305 349 343 258 177 210 179 183 203 191 212 250 161 161 160 224 86 115 40 143 155 179 145
310 268 253 187 257 206 255 242 271 311 268 277 284 268 270 261 250 255 306 232 225 235 230 253 257 264 264 242 245 245 259 268 276 193 178 154 216 175 246 260 221 203 107 286 150 147 148 89 50 113 145 143 203 237
259 272 269 234 247 222 265 234 248 215 256 266 263 244 226 218 256 131 235 212 241 37 298 324 332 324 308 298 299 270 235 240 228 212 213 194 176 213 211 229 259 221 184 241 287 158 104 126 118 175 175 139 305 132
162 258 244 240 199 254 231 218 232 284 289 265 256 268 293 27 239 234 247 117 64 3 51 3 336 291 290 278 271 249 244 217 222 212 216 195 189 243 232 215 250 232 211 76 267 232 164 159 142 174 231 246 158 264
241 223 219 251 212 234 233 229 201 205 262 257 280 288 23 24 261 254 248 96 76 67 8 350 326 322 293 292 296 282 287 208 200 193 212 224 166 250 246 271 239 228 201 181 212 202 216 180 192 175 182 186 232 205
238 203 204 241 216 257 301 299 351 163 261 253 237 344 50 316 270 288 68 167 170 133 340 306 308 306 302 296 290 323 312 324 270 206 184 213 178 189 235 264 228 213 217 191 220 223 210 234 205 186 211 180 163 258
246 237 217 268 219 191 262 268 247 263 264 262 298 23 276 253 243 260 35 80 203 196 224 246 245 254 268 283 301 288 358 318 281 250 171 188 156 173 225 272 260 253 210 222 200 206 239 212 204 224 201 221 217 196
296 303 260 298 263 264 265 260 255 248 249 257 191 216 242 247 261 202 192 189 221 237 235 252 215 226 247 256 264 273 273 272 268 116 120 135 213 172 216 249 262 66 357 283 235 258 224 226 179 256 202 218 202 216
249 247 273 270 250 251 250 227 256 217 218 247 259 272 264 280 322 322 308 300 213 176 192 237 249 250 244 229 230 253 258 299 119 191 195 197 189 215 228 236 248 241 223 238 188 259 289 314 341 332 319 276 226 216
236 207 260 274 250 228 227 223 282 335 336 338 319 300 295 287 297 299 302 300 25 159 207 208 232 298 287 276 274 197 218 217 178 184 235 227 216 210 222 215 225 238 232 219 223 205 223 244 245 253 256 259 261 247
256 231 251 246 259 271 273 260 265 269 266 264 257 255 269 279 286 286 349 337 289 111 43 159 187 203 147 258 267 291 273 198 219 270 68 329 298 281 214 224 214 217 219 215 274 252 186 231 249 227 228 238 243 244
201 216 255 274 284 305 298 255 247 236 269 252 257 203 199 232 15 8 306 338 80 63 64 278 121 161 198 241 245 167 272 118 150 114 172 227 278 18 22 281 226 208 201 192 225 240 235 247 212 214 258 224 242 238
166 166 210 263 268 263 197 206 232 250 228 281 284 359 353 11 53 352 22 32 344 25 71 298 322 357 32 313 13 22 255 78 97 100 97 56 25 346 310 302 300 263 243 235 250 251 260 279 289 254 249 269 269 282